TimeMDT,TemperatureF,Dew PointF,Humidity,Sea Level PressureIn,VisibilityMPH,Wind Direction,Wind SpeedMPH,Gust SpeedMPH,PrecipitationIn,Events,Conditions,WindDirDegrees,DateUTC
12:53 AM,46.0,39.9,79,29.87,10.0,WNW,9.2,-,N/A,,Clear,290,2013-06-23 06:53:00
1:53 AM,46.9,39.9,77,29.84,10.0,NW,9.2,-,N/A,,Clear,310,2013-06-23 07:53:00
2:53 AM,43.0,37.9,82,29.91,10.0,Variable,4.6,-,N/A,,Clear,0,2013-06-23 08:53:00
3:53 AM,41.0,39.0,93,29.92,10.0,Calm,Calm,-,N/A,,Clear,0,2013-06-23 09:53:00
4:53 AM,37.0,35.1,93,29.92,10.0,NNW,4.6,-,N/A,,Clear,330,2013-06-23 10:53:00
5:53 AM,36.0,34.0,93,29.92,10.0,Calm,Calm,-,N/A,,Clear,0,2013-06-23 11:53:00
6:53 AM,45.0,39.0,80,29.88,10.0,Calm,Calm,-,N/A,,Clear,0,2013-06-23 12:53:00
7:53 AM,51.1,39.9,66,29.87,10.0,ESE,3.5,-,N/A,,Clear,110,2013-06-23 13:53:00
8:53 AM,55.9,39.0,53,29.87,10.0,East,5.8,-,N/A,,Clear,100,2013-06-23 14:53:00
9:53 AM,62.1,33.1,34,29.84,10.0,Variable,3.5,-,N/A,,Clear,0,2013-06-23 15:53:00
10:53 AM,68.0,19.9,16,29.83,10.0,WSW,13.8,19.6,N/A,,Clear,240,2013-06-23 16:53:00
11:53 AM,72.0,14.0,11,29.81,10.0,SW,20.7,31.1,N/A,,Clear,230,2013-06-23 17:53:00
12:53 PM,77.0,16.0,10,29.78,10.0,SW,13.8,25.3,N/A,,Clear,230,2013-06-23 18:53:00
1:53 PM,75.9,14.0,10,29.76,10.0,WSW,12.7,23.0,N/A,,Clear,240,2013-06-23 19:53:00
2:53 PM,77.0,12.9,9,29.75,10.0,WSW,13.8,24.2,N/A,,Clear,240,2013-06-23 20:53:00
3:53 PM,78.1,12.0,8,29.74,10.0,SW,11.5,23.0,N/A,,Clear,220,2013-06-23 21:53:00
4:53 PM,79.0,12.9,8,29.74,10.0,WSW,16.1,27.6,N/A,,Clear,240,2013-06-23 22:53:00
5:53 PM,79.0,15.1,9,29.72,10.0,West,16.1,21.9,N/A,,Clear,260,2013-06-23 23:53:00
6:53 PM,75.9,17.1,11,29.69,10.0,SW,19.6,24.2,N/A,,Clear,220,2013-06-24 00:53:00
7:53 PM,73.9,12.0,9,29.67,10.0,SSW,12.7,-,N/A,,Clear,210,2013-06-24 01:53:00
8:53 PM,68.0,14.0,12,29.68,10.0,WSW,3.5,-,N/A,,Clear,250,2013-06-24 02:53:00
9:53 PM,66.0,15.1,14,29.68,10.0,Calm,Calm,-,N/A,,Clear,0,2013-06-24 03:53:00
10:53 PM,57.9,15.1,19,29.68,10.0,WNW,4.6,-,N/A,,Clear,290,2013-06-24 04:53:00
11:53 PM,60.1,16.0,18,29.65,10.0,West,6.9,-,N/A,,Clear,280,2013-06-24 05:53:00